Total_Precipitation_Accumulation
0.15 0.14 0.16 0.23 0.26 0.33 0.46 0.43 0.27 0.21 0.20 0.18 0.19 0.21 0.22 0.25 0.33 0.50 0.71 0.83 0.94 0.99 1.01 1.06 1.09 1.18 1.20 1.12 1.17 1.23 1.33 1.46 1.33 1.07 1.11 1.23 1.09 0.84 0.66 0.59 0.52 0.52 0.50
0.18 0.15 0.16 0.23 0.26 0.28 0.34 0.37 0.29 0.24 0.22 0.19 0.17 0.16 0.14 0.17 0.26 0.43 0.60 0.76 0.91 1.02 1.05 1.06 0.97 0.98 1.09 1.13 1.16 1.20 1.24 1.37 1.31 1.20 1.16 1.26 1.24 1.07 0.88 0.68 0.51 0.43 0.44
0.23 0.26 0.21 0.17 0.15 0.15 0.18 0.22 0.25 0.28 0.29 0.26 0.23 0.21 0.25 0.30 0.37 0.47 0.53 0.65 0.81 0.90 0.93 0.92 0.88 0.92 0.93 1.03 1.09 1.11 1.13 1.13 1.20 1.22 1.21 1.33 1.34 1.19 0.96 0.76 0.58 0.53 0.48
0.27 0.25 0.22 0.20 0.19 0.20 0.21 0.22 0.26 0.28 0.29 0.28 0.27 0.31 0.37 0.43 0.46 0.46 0.49 0.56 0.62 0.68 0.73 0.72 0.70 0.76 0.82 0.88 0.91 0.94 0.99 1.05 1.10 1.12 1.20 1.33 1.36 1.34 1.13 0.89 0.69 0.57 0.53
0.36 0.34 0.27 0.22 0.22 0.24 0.24 0.24 0.26 0.27 0.27 0.31 0.35 0.37 0.41 0.44 0.43 0.46 0.50 0.45 0.51 0.50 0.48 0.51 0.53 0.56 0.63 0.72 0.74 0.78 0.87 0.93 0.98 1.08 1.16 1.31 1.34 1.39 1.23 1.00 0.84 0.71 0.61
0.34 0.40 0.43 0.38 0.32 0.31 0.33 0.30 0.32 0.31 0.33 0.38 0.40 0.41 0.42 0.38 0.36 0.36 0.36 0.34 0.37 0.41 0.41 0.39 0.38 0.43 0.48 0.53 0.58 0.63 0.73 0.81 0.90 1.00 1.10 1.22 1.31 1.29 1.24 1.15 1.03 0.85 0.66
0.42 0.42 0.52 0.57 0.50 0.51 0.53 0.46 0.44 0.43 0.44 0.46 0.48 0.50 0.51 0.53 0.39 0.30 0.25 0.27 0.32 0.37 0.42 0.44 0.32 0.26 0.35 0.44 0.51 0.52 0.54 0.61 0.74 0.88 0.98 1.09 1.26 1.33 1.36 1.27 1.19 1.05 0.82
0.41 0.41 0.51 0.62 0.57 0.57 0.58 0.56 0.60 0.65 0.67 0.68 0.68 0.67 0.67 0.62 0.47 0.32 0.25 0.23 0.29 0.34 0.39 0.43 0.41 0.35 0.35 0.41 0.50 0.54 0.51 0.49 0.55 0.67 0.76 0.96 1.28 1.51 1.53 1.50 1.46 1.37 1.14
0.50 0.55 0.62 0.73 0.76 0.78 0.75 0.76 0.82 0.90 0.93 0.97 0.99 0.95 0.89 0.82 0.63 0.41 0.32 0.31 0.38 0.41 0.43 0.43 0.43 0.39 0.32 0.28 0.39 0.48 0.52 0.52 0.50 0.59 0.69 0.85 1.08 1.41 1.59 1.61 1.64 1.46 1.23
0.62 0.65 0.73 0.89 0.97 0.96 0.94 0.96 1.01 1.10 1.12 1.11 1.02 0.94 0.89 0.87 0.76 0.51 0.43 0.43 0.50 0.52 0.58 0.56 0.47 0.43 0.36 0.29 0.36 0.46 0.48 0.50 0.55 0.58 0.62 0.66 0.79 1.06 1.32 1.35 1.36 1.39 1.17
0.64 0.72 0.78 0.96 1.16 1.15 1.18 1.18 1.18 1.21 1.26 1.27 1.22 1.15 1.09 1.03 0.92 0.62 0.51 0.53 0.59 0.63 0.61 0.61 0.58 0.48 0.37 0.29 0.30 0.39 0.41 0.47 0.60 0.67 0.70 0.75 0.83 0.94 1.09 1.18 1.24 1.24 1.16
0.72 0.78 0.88 1.08 1.17 1.20 1.30 1.32 1.35 1.35 1.32 1.32 1.36 1.29 1.26 1.22 1.02 0.77 0.59 0.59 0.70 0.82 0.80 0.77 0.76 0.64 0.49 0.40 0.33 0.30 0.32 0.37 0.50 0.62 0.68 0.70 0.74 0.78 0.88 1.04 1.21 1.26 1.21
0.73 0.78 0.88 0.98 1.06 1.17 1.23 1.21 1.26 1.34 1.35 1.37 1.37 1.33 1.32 1.39 1.23 0.88 0.72 0.68 0.74 0.89 1.00 1.02 0.89 0.73 0.62 0.51 0.45 0.39 0.36 0.36 0.45 0.52 0.58 0.60 0.65 0.73 0.89 1.09 1.28 1.46 1.40
0.68 0.69 0.78 0.94 0.99 1.07 1.19 1.20 1.26 1.32 1.36 1.44 1.45 1.38 1.35 1.43 1.39 1.10 0.87 0.76 0.73 0.79 0.89 0.93 0.87 0.83 0.74 0.64 0.54 0.45 0.37 0.38 0.44 0.47 0.55 0.64 0.75 0.92 1.01 1.03 1.12 1.30 1.44
0.76 0.72 0.74 0.83 0.93 0.99 1.11 1.21 1.22 1.22 1.18 1.20 1.26 1.24 1.26 1.36 1.31 1.08 0.93 0.85 0.80 0.81 0.86 0.92 0.93 0.93 0.84 0.76 0.68 0.63 0.60 0.59 0.55 0.57 0.65 0.75 0.80 0.88 0.98 1.04 1.10 1.13 1.16
0.88 0.80 0.76 0.77 0.85 0.91 1.00 1.02 0.92 0.90 0.86 0.85 0.88 0.83 0.83 0.99 1.01 0.82 0.70 0.72 0.72 0.69 0.75 0.84 0.90 0.95 0.90 0.83 0.79 0.74 0.74 0.71 0.68 0.72 0.76 0.82 0.86 0.88 0.94 1.07 1.19 1.19 1.08
1.06 0.92 0.81 0.75 0.76 0.81 0.90 0.98 1.02 0.91 0.83 0.75 0.71 0.61 0.57 0.77 0.87 0.75 0.64 0.60 0.56 0.57 0.65 0.73 0.77 0.86 0.91 0.84 0.78 0.73 0.73 0.74 0.79 0.82 0.82 0.85 0.91 0.95 1.00 1.08 1.19 1.25 1.16
1.09 0.97 0.83 0.79 0.78 0.75 0.79 0.88 0.96 1.04 1.01 0.83 0.66 0.56 0.49 0.62 0.74 0.72 0.62 0.54 0.53 0.55 0.61 0.68 0.76 0.81 0.88 0.85 0.78 0.78 0.81 0.87 0.86 0.87 0.89 0.91 0.96 1.00 1.04 1.07 1.10 1.14 1.14
0.99 0.92 0.83 0.80 0.80 0.73 0.68 0.75 0.83 0.91 1.00 0.96 0.77 0.65 0.58 0.65 0.74 0.70 0.59 0.52 0.55 0.56 0.59 0.65 0.73 0.80 0.84 0.82 0.82 0.84 0.86 0.89 0.85 0.86 0.92 0.96 0.93 0.97 0.97 1.01 1.09 1.17 1.21
0.82 0.68 0.65 0.72 0.73 0.70 0.68 0.72 0.81 0.90 0.97 0.96 0.84 0.73 0.62 0.66 0.74 0.74 0.65 0.60 0.60 0.57 0.56 0.62 0.70 0.75 0.80 0.83 0.89 0.93 0.91 0.94 0.96 0.90 0.93 0.99 0.93 0.92 0.93 0.94 1.05 1.11 1.11
0.70 0.57 0.47 0.52 0.63 0.67 0.70 0.76 0.87 0.94 0.97 0.90 0.77 0.64 0.55 0.52 0.62 0.64 0.66 0.68 0.65 0.63 0.63 0.62 0.67 0.72 0.74 0.80 0.89 0.94 0.95 0.97 1.01 0.95 0.94 1.01 1.00 1.00 1.02 0.99 1.00 1.10 1.11
0.66 0.55 0.46 0.47 0.54 0.58 0.68 0.80 0.89 0.90 0.85 0.80 0.72 0.63 0.59 0.56 0.61 0.63 0.67 0.67 0.64 0.63 0.59 0.60 0.63 0.70 0.74 0.78 0.83 0.89 0.92 0.92 0.96 0.98 0.97 1.02 1.04 1.02 1.04 1.02 1.00 1.09 1.17
0.59 0.45 0.37 0.37 0.41 0.44 0.57 0.75 0.81 0.75 0.68 0.66 0.66 0.64 0.64 0.65 0.63 0.64 0.67 0.65 0.63 0.60 0.56 0.59 0.63 0.67 0.74 0.74 0.74 0.80 0.85 0.86 0.85 0.91 1.00 1.01 1.03 1.04 1.04 1.07 1.07 1.09 1.16
0.52 0.39 0.28 0.25 0.30 0.39 0.55 0.72 0.73 0.65 0.61 0.62 0.62 0.64 0.65 0.64 0.63 0.63 0.65 0.66 0.65 0.64 0.61 0.62 0.62 0.60 0.64 0.70 0.69 0.66 0.67 0.65 0.65 0.74 0.85 0.94 0.98 1.06 1.05 1.05 1.07 1.04 1.12
0.49 0.40 0.31 0.26 0.29 0.43 0.61 0.71 0.64 0.57 0.56 0.57 0.55 0.59 0.63 0.65 0.66 0.66 0.65 0.68 0.68 0.70 0.68 0.63 0.62 0.59 0.54 0.55 0.57 0.56 0.52 0.44 0.44 0.54 0.66 0.78 0.84 0.93 0.97 0.97 1.04 1.05 1.06
0.45 0.42 0.36 0.32 0.36 0.48 0.61 0.65 0.59 0.55 0.58 0.56 0.55 0.57 0.62 0.66 0.66 0.64 0.64 0.65 0.65 0.63 0.57 0.53 0.51 0.52 0.51 0.49 0.44 0.39 0.34 0.32 0.34 0.40 0.50 0.63 0.74 0.82 0.88 0.92 0.97 1.03 1.00